Location: Unspecified
(0.0000°N, 0.0000°E)
Time: 21:40:57
(UTC+00:00)

COSMOS 2390 - Visible Passes

Search period start: 13 January 2026 00:00
Search period end: 23 January 2026 00:00
Orbit: 1468 x 1506 km, 82.5° (Epoch: 13 January)

Date Brightness Start Highest point End Pass type
(mag) Time Alt. Az. Time Alt. Az. Time Alt. Az.
13 Jan 9.7 20:36:04 10° SE 20:37:03 13° SE 20:37:03 13° SE visible
13 Jan 9.9 22:31:15 10° SSW 22:32:50 16° SSW 22:32:50 16° SSW visible
14 Jan 9.4 21:39:17 10° S 21:42:17 25° S 21:42:17 25° S visible
15 Jan 9.2 20:48:46 10° SSE 20:51:46 23° SSE 20:51:46 23° SSE visible
15 Jan 10.1 22:46:38 10° SW 22:47:34 13° SW 22:47:34 13° SW visible
16 Jan 9.6 20:00:24 10° SE 20:01:17 12° SE 20:01:17 12° SE visible
16 Jan 9.4 21:53:34 10° SSW 21:57:04 27° SSW 21:57:04 27° SSW visible
17 Jan 8.8 21:02:12 10° S 21:06:37 34° SSE 21:06:37 34° SSE visible
18 Jan 9.0 20:12:21 10° SSE 20:16:12 23° SE 20:16:12 23° SE visible
18 Jan 9.5 22:08:25 10° SSW 22:12:01 23° SW 22:12:01 23° SW visible
19 Jan 8.6 21:16:09 10° S 21:21:38 44° SSW 21:21:38 44° SSW visible
20 Jan 8.4 20:25:21 10° SSE 20:31:19 41° SE 20:31:19 41° SE visible
20 Jan 9.9 22:24:11 10° SW 22:27:08 17° WSW 22:27:08 17° WSW visible
21 Jan 9.0 19:36:22 10° SE 19:41:03 21° ESE 19:41:03 21° ESE visible
21 Jan 8.8 21:30:36 10° SSW 21:36:52 41° WSW 21:36:52 41° WSW visible
22 Jan 7.8 20:38:56 10° S 20:46:40 71° SSE 20:46:40 71° SSE visible
